Terug naar catalogus

COSMOS 2248

ActiefMilitairPO
NORAD 22649·PAYLOAD·🇷🇺 Russia

Gelanceerd May 11, 1993 vanaf Plesetsk Cosmodrome

Loading…

Volgende Passages (komende 24 uur)

TLE

VersSource: Space-Track

Epoch: Sep 14, 2026, 10:05 UTC

1 22649U 93030D   26257.42065915  .00000008  00000-0 -16784-4 0  9991
2 22649  82.5733 254.2421 0010473  90.0248 270.2044 12.63524233537680

Volg COSMOS 2248 in realtime met AllMySat

Download on the App Store